Showing default

HAIYANG 2C, 46469

Orbit data source: Space-Track

HAIYANG 2C, 46469 is a Chinese payload satellite in LEO that was launched on Mon, 21 Sep 2020 UTC via a CHANG ZHENG 4B launch vehicle from the Jiuquan Satellite Launch Center, China (JSC). Payload-class satellites include a variety of spacecraft equipped with specific instruments for various scientific and technological missions. These include communications satellites like Starlink; space stations such as the ISS; scientific satellites like the Hubble; Earth observation satellites from companies like Planet Labs, Umbra, and HawkEye 360; GPS; miniature CubeSats for education and research; and military/defense satellites.

Loading next visibility...
Identifier
46469, 2020-066A
Orbit
LEO
Country
Flag of CNCN / PRC
Related business
Manufacturer
SISE
Mission
Operational Civil Earth Obs Sci
Bus & Motor
CAST-968?, Unknown motor
Mass
~1,500 kg wet, ~1,500 kg dry
Launch date (UTC)
2020-09-21 (6 years ago)
Launch vehicle
CHANG ZHENG 4B
Launch site
Jiuquan Satellite Launch Center, China (JSC)
Object type
Payload
Rocket body
Debris
Shape & HBR
Box + 2 Pan, Unknown HBR
Radar Cross Section
2.315 m², Large (>1 m²)

Expand to show TLE details & history
Last TLE update: 22 hours ago

TLE from 22 hours ago
0 HAIYANG 2C
1 46469U 20066A   26172.50346501 -.00000051  00000-0  27191-4 0  9996
2 46469  65.9954 204.5377 0008762 237.6707 122.3513 13.83375838290098
Epoch: 2026-06-21T12:04Z
TLE epoch observation values (Epoch: 2026-06-21T12:04:59.376Z)
Latitude
-0.00008°
Longitude
113.58747°
Altitude
957.385 km
Speed
7.372 km/s
True Right ascension
13h 38m 09s
True Declination
0° 00' 00"
Sunlit
Object was in daylight at epoch
Visualization orbit readout
Latitude
Unknown
Longitude
Unknown
Altitude
Unknown
Speed
Unknown
Apparent Right ascension
Unknown
Apparent Declination
Unknown
Sunlit
N/A
Visualization observer readout
Local Sidereal Time
21:25:42
Azimuth
Unknown
Elevation
Unknown
Doppler factor
Unknown
Orbital elements
Apogee altitude
956.851 km
Perigee altitude
944.008 km
Semi-major axis
7,328.567 km
Eccentricity
0.00088
Inclination
65.9954°
RAAN
204.5377°
Arg. of periapsis
237.6707°
True anomaly
122.43607°
Mean anomaly
122.3513°
Eccentric anomaly
122.39369°
Mean motion
3.45951 °/min
Orbital period
104.06 mins
BSTAR
0.000027191
Loading maneuver chart data...
Computing Atmospheric mass density...
Loading historical data...
Loading historical data...
Loading historical data...
Loading historical data...
Loading historical data...
Loading historical data...
Loading historical data...
Other satellites on launch #66 in the year 2020 (2020-09-21 UTC)

Documentation

Showing up to 5 results
|